Location: Unspecified
(0.0000°N, 0.0000°E)
Time: 14:12:10
(UTC+00:00)

Explorer 11/Cluster Stage 4 - Pass Details

Date: 19 September 2019
Orbit: 467 x 1259 km, 28.8° (Epoch: 13 October)

Event Time Altitude Azimuth Distance (km) Brightness Sun altitude
Rises 19:26:25 0° 253° (WSW) 4,117 11.5 -23.2°
Reaches altitude 10° 19:29:38 10° 259° (W) 3,078 10.6 -24.0°
Maximum altitude 19:36:46 42° 328° (NNW) 1,434 8.0 -25.7°
Enters shadow 19:39:53 27° 20° (NNE) 1,783 8.2 -26.5°
